User: anonymous
Location: Oshawa
(43.9000°N, 78.8670°W)
Time: 11:59:41
(UTC-04:00)
Language:

IDEFIX/ARIANE 42P - Orbit

View from above orbital plane
View from above orbital plane
View from above satellite
View from above satellite

Ground track
Ground track

The orbit data is extracted from the following two-line orbital elements,

1 27422U 02021B   14105.14968251  .00000167  00000-0  82272-4 0  4612
2 27422 098.3065 150.6130 0013478 074.1831 349.4976 14.28995200621138
Epoch (UTC): 15 April 2014 03:35:32
Eccentricity: 0.0013478
inclination: 98.3065°
perigee height: 785 km
apogee height: 805 km
right ascension of ascending node: 150.6130°
argument of perigee: 74.1831°
revolutions per day: 14.28995200
mean anomaly at epoch: 349.4976°
orbit number at epoch: 62113

The dashed part of the orbit path shows where the satellite is in the earth's shadow,  

DLR